Rochester, MN
on Monday, August 19, 2013

Monday
Previous Day Next Day
Daily Summary
 ActualAverageRecord
Temperature
Mean Temperature °F 69°F  
Max Temperature 81°F 79°F 98°F (1916)
Min Temperature 58°F 59°F 40°F (1967)
Degree Days
Heating Degree Days 0 1  
Month to date heating degree days 11 16  
Since 1 June heating degree days 94  
Since 1 July heating degree days 34 27  
Cooling Degree Days 5 5  
Month to date cooling degree days 26 105  
Year to date cooling degree days 411 476  
Since 1 June cooling degree days 381  
Growing Degree Days19 (Base °F )  
Moisture
Dew Point 61°F   
Average Humidity 76    
Maximum Humidity 93    
Minimum Humidity 58    
Precipitation
Precipitation 0.00 in 0.15 in 2.16 in (1990)
Month to date precipitation 1.29 2.80  
Year to date precipitation 34.19 22.47  
Since 1 June precipitation 10.29 12.03  
Snow
Snow 0.00 in 0.00 in 0.00 in (2012)
Month to date snowfall 0.0 0.0  
Since 1 June snowfall 0.0  
Since 1 July snowfall 0.0 0.0  
Snow Depth 0.00 in   
Wind
Wind Speed 10 mph   
Max Wind Speed 17 mph   
Max Gust Speed 23 mph   
Visibility 9 miles   
Events     

Key: T is trace of precipitation, MM is missing value
Source: NWS Daily Summary
Time(CDT)TemperatureDew PointHumidity Pressure Visibility Wind DirectionWind SpeedGust SpeedPrecipitationEvents Conditions
12:54 AM 60.1°F 55.9°F 86% 30.09 in 9.0 miles South 8.1 mph - N/A   Clear
1:54 AM 59.0°F 55.0°F 87% 30.09 in 9.0 miles South 8.1 mph - N/A   Clear
2:54 AM 57.9°F 55.0°F 90% 30.08 in 9.0 miles SSW 8.1 mph - N/A   Clear
3:54 AM 57.9°F 55.0°F 90% 30.07 in 9.0 miles South 8.1 mph - N/A   Clear
4:54 AM 57.9°F 55.0°F 90% 30.06 in 9.0 miles South 6.9 mph - N/A   Clear
5:54 AM 59.0°F 55.0°F 87% 30.06 in 8.0 miles South 6.9 mph - N/A   Scattered Clouds
6:54 AM 59.0°F 55.9°F 90% 30.06 in 7.0 miles South 5.8 mph - N/A   Scattered Clouds
7:54 AM 62.1°F 57.0°F 84% 30.06 in - South 9.2 mph - N/A   Unknown
8:54 AM 66.9°F 60.1°F 79% 30.06 in 8.0 miles SSW 10.4 mph - N/A   Clear
9:54 AM 72.0°F 61.0°F 68% 30.05 in 9.0 miles SSW 15.0 mph - N/A   Clear
10:54 AM 72.0°F 61.0°F 68% 30.05 in 9.0 miles SSW 11.5 mph - N/A   Clear
11:54 AM 72.0°F 62.1°F 71% 30.04 in 9.0 miles SSW 11.5 mph - N/A   Clear
12:54 PM 75.0°F 64.0°F 69% 30.04 in 9.0 miles South 9.2 mph - N/A   Clear
1:54 PM 80.1°F 64.9°F 60% 30.02 in 10.0 miles SSW 11.5 mph 19.6 mph N/A   Mostly Cloudy
2:54 PM 79.0°F 64.9°F 62% 30.01 in 10.0 miles SSW 12.7 mph 20.7 mph N/A   Mostly Cloudy
3:54 PM 79.0°F 66.0°F 64% 30.00 in 10.0 miles SSW 11.5 mph - N/A   Mostly Cloudy
4:54 PM 79.0°F 66.0°F 64% 29.99 in 10.0 miles South 13.8 mph - N/A   Mostly Cloudy
5:54 PM 79.0°F 66.0°F 64% 29.99 in 10.0 miles South 12.7 mph - N/A   Partly Cloudy
6:54 PM 77.0°F 64.9°F 66% 29.98 in 9.0 miles South 13.8 mph - N/A   Clear
7:54 PM 75.0°F 64.9°F 71% 29.97 in 9.0 miles South 10.4 mph - N/A   Clear
8:54 PM 71.1°F 64.0°F 78% 29.98 in 10.0 miles South 5.8 mph - N/A   Clear
9:54 PM 71.1°F 64.0°F 78% 29.99 in 9.0 miles South 9.2 mph - N/A   Mostly Cloudy
10:54 PM 70.0°F 63.0°F 78% 29.99 in 9.0 miles South 9.2 mph - N/A   Mostly Cloudy
11:54 PM 68.0°F 62.1°F 81% 29.99 in 9.0 miles South 8.1 mph - N/A   Mostly Cloudy
Astronomy
Sunrise:06:18 AM (CDT) Moon Rise:06:58 PM (CDT)8/19
Sunset:08:07 PM (CDT) Moon Set:04:37 AM (CDT)8/19
Moon Phase
Aug. 19 Aug. 21 Aug. 28 Sep. 05 Sep. 12

Copyright © 2015 The Weather Underground, Inc.